Weather Roundup
Issued by NWS

Home | Current Version | Previous Version | Text Only | Print | Product List | Glossary On
Versions: 1 2 3 4 5 6 7 8 9 10 11 12 13 14 15 16 17 18 19 20 21 22 23 24 25 26 27 28 29 30 31 32 33 34 35 36 37 38 39 40 41 42 43 44 45 46 47 48 49 50
000
NZUS93 KARX 042210
HRRWXR

CURRENT HOURLY OBSERVATIONS ACROSS
MUCH OF THE UPPER MISSISSIPPI VALLEY
NATIONAL WEATHER SERVICE LA CROSSE WI
500 PM CDT WED MAY 04 2016


...SOUTHEAST MINNESOTA...


CITY           SKY/WX    TMP DP  RH WIND       PRES   REMARKS
ROCHESTER      SUNNY     63  31  30 N26       29.92R
ROCHESTER/MAYO FAIR      63  29  28 NW18G25   29.91R
WINONA         SUNNY     63  30  29 N12G18    29.89S
AUSTIN         SUNNY     63  30  29 N14G28    29.91F
ALBERT LEA     SUNNY     66  25  20 N20G25    29.92F
DODGE CENTER   SUNNY     64  23  20 N18G25    29.92S
PRESTON        SUNNY     60  31  32 N17G24    29.90R
OWATONNA       SUNNY     64  27  24 N18       29.93S
FARIBAULT      SUNNY     64  32  29 NW16G23   29.93S
$$

...ELSEWHERE IN MINNESOTA...


CITY           SKY/WX    TMP DP  RH WIND       PRES   REMARKS
MINNEAPOLIS    SUNNY     66  27  23 NW14      29.94S
INTNL FALLS    SUNNY     60  19  20 VRB5      29.98F
DULUTH         SUNNY     56  29  35 SE12      29.95R
RED WING       SUNNY     66  23  19 N9G20     29.91R
REDWOOD FALLS  SUNNY     70  27  20 N10G21    29.96F
MANKATO        SUNNY     66  27  22 N20G26    29.94S
WORTHINGTON    SUNNY     66  35  31 NW16G22   30.00F
FAIRMONT       SUNNY     66  32  28 N20       29.95S
$$

...SOUTHWEST WISCONSIN...


CITY           SKY/WX    TMP DP  RH WIND       PRES   REMARKS
LA CROSSE      SUNNY     65  28  24 NW21      29.87S
PRAIRIE DU CHI SUNNY     64  27  25 NW15G25   29.86S
BOSCOBEL       SUNNY     65  28  24 NW17G29   29.86R
LONE ROCK      SUNNY     63  26  24 N16G25    29.84R
PLATTEVILLE    MOSUNNY   62  32  32 N17G29    29.84R
FORT MC COY    SUNNY     64  23  21 NW20G26   29.87R
CAMP DOUGLAS   MOSUNNY   63  28  27 NW16G29   29.84R
MAUSTON-NEW LI CLEAR     63  26  24 NW17G24   29.83S
VIROQUA        FAIR      60  28  29 N15G28    29.87R
WIS DELLS      MOSUNNY   62  22  21 N16G23    29.83R
$$

...ELSEWHERE IN WISCONSIN...


CITY           SKY/WX    TMP DP  RH WIND       PRES   REMARKS
MILWAUKEE      PTSUNNY   44  36  73 N12       29.82R
MADISON        PTSUNNY   59  31  34 N15G24    29.81S
GREEN BAY      CLOUDY    53  36  52 NE18      29.85R
EAU CLAIRE     SUNNY     63  20  19 N13G22    29.90R
BLACK RVR FLS  FAIR      64  14  14 N13G21    29.87R
MEDFORD        SUNNY     55  32  41 N16       29.89S
WAUSAU         MOSUNNY   56  32  40 N16G26    29.87R
WIS RAPIDS     SUNNY     61  25  25 N18G26    29.86R
MARSHFIELD     SUNNY     59  27  29 N17G30    29.87R
RICE LAKE      SUNNY     62  15  15 N14G20    29.94R
$$

...NORTHEAST IOWA...


CITY           SKY/WX    TMP DP  RH WIND       PRES   REMARKS
WATERLOO       SUNNY     65  30  27 N21G33    29.89S
DUBUQUE        MOSUNNY   61  34  36 NW21G29   29.85S
DECORAH        MOSUNNY   63  32  31 NW15G22   29.87F
MASON CITY     SUNNY     66  33  29 NW21G28   29.93F
CHARLES CITY   SUNNY     64  28  25 N24G33    29.90F
OELWEIN        SUNNY     64  30  27 N20G31    29.89S
$$

...ELSEWHERE IN IOWA...


CITY           SKY/WX    TMP DP  RH WIND       PRES   REMARKS
DES MOINES     MOSUNNY   68  30  24 N17G23    29.95S
IOWA CITY      MOSUNNY   65  30  27 NW13G26   29.88F
FORT DODGE     SUNNY     66  37  34 NW10G24   29.97S
MARSHALLTOWN   SUNNY     66  32  28 NW17G29   29.91F
CEDAR RAPIDS   MOSUNNY   65  33  30 N23G33    29.87S
$$

...NORTHERN ILLINOIS...


CITY           SKY/WX    TMP DP  RH WIND       PRES   REMARKS
CHICAGO-OHARE  CLOUDY    50  38  63 NE7       29.80S
CHICAGO-MIDWAY CLOUDY    49  36  61 N9        29.82R
MOLINE         MOSUNNY   64  33  31 N17G23    29.83F
ROCKFORD       CLOUDY    58  35  42 N14       29.83S
PEORIA         PTSUNNY   62  35  36 NW12G22   29.84S
$$

NOTE: "FAIR" INDICATES FEW OR NO CLOUDS BELOW 12,000 FEET WITH NO
SIGNIFICANT WEATHER AND/OR OBSTRUCTIONS TO VISIBILITY. WIND
SPEEDS ARE IN MILES-PER-HOUR.




USA.gov is the U.S. government's official web portal to all federal, state and local government web resources and services.